Regional Weather Roundup
Issued by NWS Sioux Falls, SD

Home | Current Version | Previous Version | Text Only | Print | Product List | Glossary On
Versions: 1 2 3 4 5 6 7 8 9 10 11 12 13 14 15 16 17 18 19 20 21 22 23 24 25 26 27 28 29 30 31 32 33 34 35 36 37 38 39 40 41 42 43 44 45 46 47 48 49 50
000
ASUS43 KFSD 260202
RWRFSD

WEATHER ROUNDUP FOR SE SOUTH DAKOTA/SW MINNESOTA/NW IOWA
NATIONAL WEATHER SERVICE SIOUX FALLS SD
900 PM CDT SUN JUN 25 2017

NOTE: "FAIR" INDICATES FEW OR NO CLOUDS BELOW 12,000 FEET WITH NO
SIGNIFICANT WEATHER AND OR OBSTRUCTIONS TO VISIBILITY.


SDZ038>040-050-052>070-260300-
SOUTHEAST SOUTH DAKOTA

CITY           SKY/WX    TMP DP  RH WIND       PRES   REMARKS
BROOKINGS      CLOUDY    57  47  69 SW3       30.17F
CHAMBERLAIN    CLEAR     71  44  37 E5        30.13S
HURON          MOCLDY    63  48  58 NE10      30.17R
MADISON        FAIR      59  45  58 NE9       30.18F
MITCHELL       PTCLDY    64  51  62 SE7       30.14F
SIOUX FALLS    PTCLDY    66  45  46 CALM      30.17F
WINNER         FAIR      72  41  32 S7        30.14F
YANKTON        CLEAR     68  44  42 E5        30.17F
$$

MNZ071-072-080-081-089-090-097-098-260300-
SOUTHWEST MINNESOTA

CITY           SKY/WX    TMP DP  RH WIND       PRES   REMARKS
FAIRMONT       CLOUDY    63  45  51 NW8       30.18F
JACKSON        CLOUDY    61  43  51 NW8       30.21S
MARSHALL       CLOUDY    60  46  59 NW5       30.18F
MONTEVIDEO     PTCLDY    61  48  63 E5        30.17S
PIPESTONE      MOCLDY    61  45  55 NE5       30.19F
REDWOOD FALLS  CLOUDY    61  47  59 CALM      30.16F
TRACY          MOCLDY    60  49  68 W3        30.18F
WINDOM         PTCLDY    63  41  45 W15       30.20R
WORTHINGTON    CLOUDY    62  44  51 N13G18    30.22S
$$

IAZ001>003-012>014-020>022-031-032-NEZ013-014-SDZ071-260300-
NORTHWEST IOWA

CITY           SKY/WX    TMP DP  RH WIND       PRES   REMARKS
CHEROKEE       CLEAR     65  42  43 CALM      30.19F
DENISON        CLEAR     66  43  42 CALM      30.22F
ESTHERVILLE    CLOUDY    61  46  57 NW6       30.19F
LE MARS        CLEAR     64  52  63 CALM      30.19F
ORANGE CITY    CLEAR     66  43  42 CALM      30.19F
SHELDON        CLEAR     64  45  48 MISG      30.17F
SIOUX CITY     CLEAR     66  45  46 CALM      30.18F
SPENCER        CLEAR     64  45  49 N6        30.19F
STORM LAKE     CLEAR     63  43  48 N5        30.20F
$$

ABBREVIATIONS USED IN REMARKS
   TC - TEMPERATURE IN CELSIUS
  WCI - WIND CHILL INDEX
   HX - HEAT INDEX
  VSB - VISIBILITY





USA.gov is the U.S. government's official web portal to all federal, state and local government web resources and services.